Time,TemperatureF,DewpointF,PressureIn,WindDirection,WindDirectionDegrees,WindSpeedMPH,WindSpeedGustMPH,Humidity,HourlyPrecipIn,Conditions,Clouds,dailyrainin,SoftwareType,DateUTC
2013-02-16 00:01:00,65.0,59.0,30.11,NE,56,0.0,-999.0,81,-99.99,,,-99.99,,2013-02-16 10:01:00,
2013-02-16 00:11:00,65.0,59.0,30.11,NE,56,0.0,-999.0,81,-99.99,,,-99.99,,2013-02-16 10:11:00,
2013-02-16 00:21:00,64.0,58.0,30.10,NE,56,0.0,-999.0,82,-99.99,,,-99.99,,2013-02-16 10:21:00,
2013-02-16 00:31:00,63.0,57.0,30.10,NE,56,0.0,-999.0,82,-99.99,,,-99.99,,2013-02-16 10:31:00,
2013-02-16 00:41:00,63.0,57.0,30.10,NE,56,0.0,-999.0,82,-99.99,,,-99.99,,2013-02-16 10:41:00,
2013-02-16 00:51:00,64.0,58.0,30.10,ENE,75,1.0,-999.0,82,-99.99,,,-99.99,,2013-02-16 10:51:00,
2013-02-16 01:02:00,64.0,58.0,30.09,East,84,1.0,-999.0,80,-99.99,,,-99.99,,2013-02-16 11:02:00,
2013-02-16 01:11:00,64.0,58.0,30.09,East,84,1.0,-999.0,80,-99.99,,,-99.99,,2013-02-16 11:11:00,
2013-02-16 01:22:00,64.0,58.0,30.09,East,82,1.0,-999.0,80,-99.99,,,-99.99,,2013-02-16 11:22:00,
2013-02-16 01:31:00,65.0,58.0,30.08,ENE,77,2.0,-999.0,77,-99.99,,,-99.99,,2013-02-16 11:31:00,
2013-02-16 01:42:00,65.0,58.0,30.08,ENE,77,2.0,-999.0,77,-99.99,,,-99.99,,2013-02-16 11:42:00,
2013-02-16 01:52:00,65.0,58.0,30.08,ENE,77,2.0,-999.0,77,-99.99,,,-99.99,,2013-02-16 11:52:00,
2013-02-16 02:01:00,65.0,57.0,30.07,ESE,103,0.0,-999.0,75,-99.99,,,-99.99,,2013-02-16 12:01:00,
2013-02-16 02:12:00,65.0,57.0,30.07,ESE,103,0.0,-999.0,75,-99.99,,,-99.99,,2013-02-16 12:12:00,
2013-02-16 02:22:00,65.0,57.0,30.06,East,80,0.0,-999.0,75,-99.99,,,-99.99,,2013-02-16 12:22:00,
2013-02-16 02:32:00,66.0,57.0,30.06,ESE,110,1.0,-999.0,74,-99.99,,,-99.99,,2013-02-16 12:32:00,
2013-02-16 02:42:00,66.0,57.0,30.06,ESE,110,1.0,-999.0,74,-99.99,,,-99.99,,2013-02-16 12:42:00,
2013-02-16 02:52:00,66.0,57.0,30.06,East,88,1.0,-999.0,73,-99.99,,,-99.99,,2013-02-16 12:52:00,
2013-02-16 03:01:00,66.0,57.0,30.06,East,88,0.0,-999.0,73,-99.99,,,-99.99,,2013-02-16 13:01:00,
2013-02-16 03:11:00,65.0,56.0,30.05,East,83,1.0,-999.0,73,-99.99,,,-99.99,,2013-02-16 13:11:00,
2013-02-16 03:21:00,65.0,56.0,30.05,East,83,1.0,-999.0,73,-99.99,,,-99.99,,2013-02-16 13:21:00,
2013-02-16 03:31:00,65.0,56.0,30.05,ENE,71,0.0,-999.0,74,-99.99,,,-99.99,,2013-02-16 13:31:00,
2013-02-16 03:41:00,65.0,56.0,30.05,ENE,71,0.0,-999.0,74,-99.99,,,-99.99,,2013-02-16 13:41:00,
2013-02-16 03:51:00,64.0,56.0,30.05,ENE,78,0.0,-999.0,75,-99.99,,,-99.99,,2013-02-16 13:51:00,
2013-02-16 04:01:00,64.0,57.0,30.05,ENE,76,0.0,-999.0,77,-99.99,,,-99.99,,2013-02-16 14:01:00,
2013-02-16 04:11:00,64.0,57.0,30.05,ENE,76,0.0,-999.0,77,-99.99,,,-99.99,,2013-02-16 14:11:00,
2013-02-16 04:21:00,63.0,56.0,30.05,East,82,0.0,-999.0,77,-99.99,,,-99.99,,2013-02-16 14:21:00,
2013-02-16 04:32:00,63.0,56.0,30.06,ENE,71,0.0,-999.0,78,-99.99,,,-99.99,,2013-02-16 14:32:00,
2013-02-16 04:41:00,63.0,56.0,30.06,ENE,71,0.0,-999.0,78,-99.99,,,-99.99,,2013-02-16 14:41:00,
2013-02-16 04:52:00,63.0,56.0,30.06,ENE,71,0.0,-999.0,78,-99.99,,,-99.99,,2013-02-16 14:52:00,
2013-02-16 05:01:00,63.0,56.0,30.06,East,80,0.0,-999.0,78,-99.99,,,-99.99,,2013-02-16 15:01:00,
2013-02-16 05:11:00,63.0,56.0,30.06,East,80,0.0,-999.0,78,-99.99,,,-99.99,,2013-02-16 15:11:00,
2013-02-16 05:21:00,64.0,57.0,30.06,ENE,76,0.0,-999.0,77,-99.99,,,-99.99,,2013-02-16 15:21:00,
2013-02-16 05:31:00,63.0,56.0,30.06,ENE,76,0.0,-999.0,78,-99.99,,,-99.99,,2013-02-16 15:31:00,
2013-02-16 05:41:00,63.0,56.0,30.06,ENE,76,0.0,-999.0,78,-99.99,,,-99.99,,2013-02-16 15:41:00,
2013-02-16 05:51:00,62.0,56.0,30.07,ENE,76,0.0,-999.0,80,-99.99,,,-99.99,,2013-02-16 15:51:00,
2013-02-16 06:01:00,62.0,56.0,30.07,ENE,74,0.0,-999.0,82,-99.99,,,-99.99,,2013-02-16 16:01:00,
2013-02-16 06:11:00,62.0,56.0,30.07,ENE,74,0.0,-999.0,82,-99.99,,,-99.99,,2013-02-16 16:11:00,
2013-02-16 06:21:00,63.0,57.0,30.07,East,81,1.0,-999.0,80,-99.99,,,-99.99,,2013-02-16 16:21:00,
2013-02-16 06:32:00,63.0,56.0,30.07,ENE,76,1.0,-999.0,79,-99.99,,,-99.99,,2013-02-16 16:32:00,
2013-02-16 06:41:00,63.0,56.0,30.07,ENE,76,1.0,-999.0,79,-99.99,,,-99.99,,2013-02-16 16:41:00,
2013-02-16 06:51:00,64.0,57.0,30.08,ENE,74,1.0,-999.0,79,-99.99,,,-99.99,,2013-02-16 16:51:00,
2013-02-16 07:01:00,64.0,57.0,30.08,East,79,0.0,-999.0,78,-99.99,,,-99.99,,2013-02-16 17:01:00,
2013-02-16 07:11:00,64.0,57.0,30.08,East,79,0.0,-999.0,78,-99.99,,,-99.99,,2013-02-16 17:11:00,
2013-02-16 07:21:00,62.0,56.0,30.09,ENE,69,0.0,-999.0,81,-99.99,,,-99.99,,2013-02-16 17:21:00,
2013-02-16 07:31:00,62.0,56.0,30.09,ENE,61,0.0,-999.0,82,-99.99,,,-99.99,,2013-02-16 17:31:00,
2013-02-16 07:41:00,62.0,56.0,30.09,ENE,61,0.0,-999.0,82,-99.99,,,-99.99,,2013-02-16 17:41:00,
2013-02-16 07:52:00,62.0,57.0,30.10,East,80,0.0,-999.0,83,-99.99,,,-99.99,,2013-02-16 17:52:00,
2013-02-16 08:01:00,63.0,57.0,30.09,East,80,1.0,-999.0,82,-99.99,,,-99.99,,2013-02-16 18:01:00,
2013-02-16 08:11:00,65.0,59.0,30.09,East,85,1.0,-999.0,82,-99.99,,,-99.99,,2013-02-16 18:11:00,
2013-02-16 08:21:00,65.0,59.0,30.09,East,85,1.0,-999.0,82,-99.99,,,-99.99,,2013-02-16 18:21:00,
2013-02-16 08:32:00,67.0,60.0,30.10,ESE,105,0.0,-999.0,78,-99.99,,,-99.99,,2013-02-16 18:32:00,
2013-02-16 08:41:00,67.0,60.0,30.10,ESE,105,0.0,-999.0,78,-99.99,,,-99.99,,2013-02-16 18:41:00,
2013-02-16 08:51:00,69.0,61.0,30.10,South,180,0.0,-999.0,76,-99.99,,,-99.99,,2013-02-16 18:51:00,
2013-02-16 09:02:00,70.0,63.0,30.10,SSW,204,1.0,-999.0,78,-99.99,,,-99.99,,2013-02-16 19:02:00,
2013-02-16 09:11:00,70.0,63.0,30.10,SSW,204,1.0,-999.0,78,-99.99,,,-99.99,,2013-02-16 19:11:00,
2013-02-16 09:21:00,70.0,65.0,30.10,SSW,204,2.0,-999.0,84,-99.99,,,-99.99,,2013-02-16 19:21:00,
2013-02-16 09:31:00,70.0,65.0,30.11,SSW,197,2.0,-999.0,83,-99.99,,,-99.99,,2013-02-16 19:31:00,
2013-02-16 09:42:00,70.0,65.0,30.11,SSW,197,2.0,-999.0,83,-99.99,,,-99.99,,2013-02-16 19:42:00,
2013-02-16 09:52:00,70.0,65.0,30.11,SSW,206,1.0,-999.0,84,-99.99,,,-99.99,,2013-02-16 19:52:00,
2013-02-16 10:01:00,71.0,66.0,30.11,SSW,196,2.0,-999.0,83,-99.99,,,-99.99,,2013-02-16 20:01:00,
2013-02-16 10:11:00,71.0,65.0,30.11,SW,223,2.0,-999.0,82,-99.99,,,-99.99,,2013-02-16 20:11:00,
2013-02-16 10:21:00,71.0,65.0,30.11,SW,223,2.0,-999.0,82,-99.99,,,-99.99,,2013-02-16 20:21:00,
2013-02-16 10:32:00,72.0,65.0,30.11,West,281,3.0,-999.0,79,-99.99,,,-99.99,,2013-02-16 20:32:00,
2013-02-16 10:42:00,72.0,65.0,30.11,West,281,3.0,-999.0,79,-99.99,,,-99.99,,2013-02-16 20:42:00,
2013-02-16 10:52:00,71.0,63.0,30.11,WNW,298,3.0,-999.0,76,-99.99,,,-99.99,,2013-02-16 20:52:00,
2013-02-16 11:02:00,71.0,63.0,30.10,NNW,331,3.0,-999.0,75,-99.99,,,-99.99,,2013-02-16 21:02:00,
2013-02-16 11:11:00,71.0,63.0,30.10,NNW,331,3.0,-999.0,75,-99.99,,,-99.99,,2013-02-16 21:11:00,
2013-02-16 11:21:00,70.0,63.0,30.10,NNW,338,2.0,-999.0,78,-99.99,,,-99.99,,2013-02-16 21:21:00,
2013-02-16 11:31:00,70.0,63.0,30.09,NNW,340,2.0,-999.0,78,-99.99,,,-99.99,,2013-02-16 21:31:00,
2013-02-16 11:41:00,70.0,63.0,30.09,NNW,340,2.0,-999.0,78,-99.99,,,-99.99,,2013-02-16 21:41:00,
2013-02-16 11:52:00,71.0,63.0,30.09,NNW,348,2.0,-999.0,77,-99.99,,,-99.99,,2013-02-16 21:52:00,
2013-02-16 12:01:00,71.0,63.0,30.08,South,169,1.0,-999.0,77,-99.99,,,-99.99,,2013-02-16 22:01:00,
2013-02-16 12:11:00,71.0,63.0,30.08,South,169,1.0,-999.0,77,-99.99,,,-99.99,,2013-02-16 22:11:00,
2013-02-16 12:21:00,73.0,64.0,30.07,SSW,192,2.0,-999.0,74,-99.99,,,-99.99,,2013-02-16 22:21:00,
2013-02-16 12:31:00,74.0,64.0,30.06,South,171,3.0,-999.0,71,-99.99,,,-99.99,,2013-02-16 22:31:00,
2013-02-16 12:42:00,74.0,64.0,30.06,South,171,3.0,-999.0,71,-99.99,,,-99.99,,2013-02-16 22:42:00,
2013-02-16 12:51:00,74.0,64.0,30.06,SW,217,3.0,-999.0,71,-99.99,,,-99.99,,2013-02-16 22:51:00,
2013-02-16 13:02:00,74.0,64.0,30.05,SSW,193,2.0,-999.0,70,-99.99,,,-99.99,,2013-02-16 23:02:00,
2013-02-16 13:11:00,74.0,64.0,30.05,SSW,193,2.0,-999.0,70,-99.99,,,-99.99,,2013-02-16 23:11:00,
2013-02-16 13:21:00,73.0,64.0,30.04,SSW,198,3.0,-999.0,74,-99.99,,,-99.99,,2013-02-16 23:21:00,
2013-02-16 13:31:00,73.0,65.0,30.04,SSW,192,2.0,-999.0,75,-99.99,,,-99.99,,2013-02-16 23:31:00,
2013-02-16 13:41:00,73.0,65.0,30.04,SSW,192,2.0,-999.0,75,-99.99,,,-99.99,,2013-02-16 23:41:00,
2013-02-16 13:52:00,73.0,65.0,30.04,South,186,1.0,-999.0,77,-99.99,,,-99.99,,2013-02-16 23:52:00,
2013-02-16 14:01:00,73.0,66.0,30.03,SW,232,0.0,-999.0,79,-99.99,,,-99.99,,2013-02-17 00:01:00,
2013-02-16 14:11:00,73.0,66.0,30.03,SW,232,0.0,-999.0,79,-99.99,,,-99.99,,2013-02-17 00:11:00,
2013-02-16 14:21:00,74.0,67.0,30.03,South,178,1.0,-999.0,78,-99.99,,,-99.99,,2013-02-17 00:21:00,
2013-02-16 14:31:00,75.0,66.0,30.02,SSW,209,0.0,-999.0,74,-99.99,,,-99.99,,2013-02-17 00:31:00,
2013-02-16 14:41:00,75.0,66.0,30.02,SSW,209,0.0,-999.0,74,-99.99,,,-99.99,,2013-02-17 00:41:00,
2013-02-16 14:51:00,74.0,65.0,30.02,South,185,1.0,-999.0,74,-99.99,,,-99.99,,2013-02-17 00:51:00,
2013-02-16 15:01:00,77.0,68.0,30.02,South,181,1.0,-999.0,73,-99.99,,,-99.99,,2013-02-17 01:01:00,
2013-02-16 15:11:00,77.0,68.0,30.02,South,181,1.0,-999.0,73,-99.99,,,-99.99,,2013-02-17 01:11:00,
2013-02-16 15:21:00,76.0,66.0,30.02,SSW,197,1.0,-999.0,72,-99.99,,,-99.99,,2013-02-17 01:21:00,
2013-02-16 15:31:00,75.0,67.0,30.02,South,182,1.0,-999.0,75,-99.99,,,-99.99,,2013-02-17 01:31:00,
2013-02-16 15:41:00,75.0,67.0,30.02,South,182,1.0,-999.0,75,-99.99,,,-99.99,,2013-02-17 01:41:00,
2013-02-16 15:52:00,75.0,67.0,30.02,SSW,208,0.0,-999.0,76,-99.99,,,-99.99,,2013-02-17 01:52:00,
2013-02-16 16:01:00,74.0,66.0,30.02,SSW,192,0.0,-999.0,76,-99.99,,,-99.99,,2013-02-17 02:01:00,
2013-02-16 16:11:00,74.0,66.0,30.02,SSW,192,0.0,-999.0,76,-99.99,,,-99.99,,2013-02-17 02:11:00,
2013-02-16 16:21:00,74.0,67.0,30.02,SSW,198,1.0,-999.0,78,-99.99,,,-99.99,,2013-02-17 02:21:00,
2013-02-16 16:31:00,73.0,66.0,30.02,SSW,200,1.0,-999.0,80,-99.99,,,-99.99,,2013-02-17 02:31:00,
2013-02-16 16:41:00,73.0,66.0,30.02,SSW,200,1.0,-999.0,80,-99.99,,,-99.99,,2013-02-17 02:41:00,
2013-02-16 16:51:00,73.0,66.0,30.03,SSW,201,0.0,-999.0,79,-99.99,,,-99.99,,2013-02-17 02:51:00,
2013-02-16 17:01:00,74.0,67.0,30.03,SSW,193,1.0,-999.0,78,-99.99,,,-99.99,,2013-02-17 03:01:00,
2013-02-16 17:11:00,74.0,67.0,30.03,SSW,193,1.0,-999.0,78,-99.99,,,-99.99,,2013-02-17 03:11:00,
2013-02-16 17:21:00,74.0,66.0,30.03,SSW,200,0.0,-999.0,76,-99.99,,,-99.99,,2013-02-17 03:21:00,
2013-02-16 17:31:00,74.0,66.0,30.03,SSW,195,1.0,-999.0,76,-99.99,,,-99.99,,2013-02-17 03:31:00,
2013-02-16 17:41:00,74.0,66.0,30.03,SSW,195,1.0,-999.0,76,-99.99,,,-99.99,,2013-02-17 03:41:00,
2013-02-16 17:51:00,73.0,65.0,30.04,SSW,195,0.0,-999.0,77,-99.99,,,-99.99,,2013-02-17 03:51:00,
2013-02-16 18:01:00,72.0,65.0,30.04,SSE,155,0.0,-999.0,78,-99.99,,,-99.99,,2013-02-17 04:01:00,
2013-02-16 18:11:00,71.0,64.0,30.05,SSW,193,0.0,-999.0,79,-99.99,,,-99.99,,2013-02-17 04:11:00,
2013-02-16 18:21:00,71.0,64.0,30.05,SSW,193,0.0,-999.0,79,-99.99,,,-99.99,,2013-02-17 04:21:00,
2013-02-16 18:31:00,71.0,65.0,30.05,South,190,0.0,-999.0,80,-99.99,,,-99.99,,2013-02-17 04:31:00,
2013-02-16 18:41:00,71.0,65.0,30.05,South,190,0.0,-999.0,80,-99.99,,,-99.99,,2013-02-17 04:41:00,
2013-02-16 18:51:00,70.0,64.0,30.06,South,190,0.0,-999.0,81,-99.99,,,-99.99,,2013-02-17 04:51:00,
2013-02-16 19:01:00,69.0,63.0,30.06,South,190,0.0,-999.0,82,-99.99,,,-99.99,,2013-02-17 05:01:00,
2013-02-16 19:11:00,69.0,64.0,30.06,South,190,0.0,-999.0,83,-99.99,,,-99.99,,2013-02-17 05:11:00,
2013-02-16 19:22:00,69.0,64.0,30.06,South,190,0.0,-999.0,83,-99.99,,,-99.99,,2013-02-17 05:22:00,
2013-02-16 19:32:00,68.0,63.0,30.06,South,190,0.0,-999.0,83,-99.99,,,-99.99,,2013-02-17 05:32:00,
2013-02-16 19:42:00,68.0,63.0,30.06,South,190,0.0,-999.0,83,-99.99,,,-99.99,,2013-02-17 05:42:00,
2013-02-16 19:52:00,67.0,62.0,30.06,South,190,0.0,-999.0,84,-99.99,,,-99.99,,2013-02-17 05:52:00,
2013-02-16 20:02:00,67.0,63.0,30.07,South,190,0.0,-999.0,86,-99.99,,,-99.99,,2013-02-17 06:02:00,
2013-02-16 20:11:00,67.0,63.0,30.07,South,190,0.0,-999.0,86,-99.99,,,-99.99,,2013-02-17 06:11:00,
2013-02-16 20:21:00,66.0,62.0,30.07,South,190,0.0,-999.0,86,-99.99,,,-99.99,,2013-02-17 06:21:00,
2013-02-16 20:31:00,66.0,62.0,30.08,South,190,0.0,-999.0,86,-99.99,,,-99.99,,2013-02-17 06:31:00,
2013-02-16 20:41:00,66.0,62.0,30.08,South,190,0.0,-999.0,86,-99.99,,,-99.99,,2013-02-17 06:41:00,
2013-02-16 20:51:00,65.0,61.0,30.08,South,190,0.0,-999.0,88,-99.99,,,-99.99,,2013-02-17 06:51:00,
2013-02-16 21:01:00,65.0,61.0,30.08,South,190,0.0,-999.0,88,-99.99,,,-99.99,,2013-02-17 07:01:00,
2013-02-16 21:11:00,65.0,61.0,30.09,South,190,0.0,-999.0,87,-99.99,,,-99.99,,2013-02-17 07:11:00,
2013-02-16 21:21:00,65.0,61.0,30.09,South,190,0.0,-999.0,87,-99.99,,,-99.99,,2013-02-17 07:21:00,
2013-02-16 21:31:00,65.0,61.0,30.09,South,190,0.0,-999.0,86,-99.99,,,-99.99,,2013-02-17 07:31:00,
2013-02-16 21:41:00,65.0,61.0,30.09,South,190,0.0,-999.0,86,-99.99,,,-99.99,,2013-02-17 07:41:00,
2013-02-16 21:51:00,64.0,59.0,30.09,South,190,0.0,-999.0,85,-99.99,,,-99.99,,2013-02-17 07:51:00,
2013-02-16 22:01:00,64.0,59.0,30.09,South,190,0.0,-999.0,85,-99.99,,,-99.99,,2013-02-17 08:01:00,
2013-02-16 22:11:00,64.0,59.0,30.09,South,190,0.0,-999.0,85,-99.99,,,-99.99,,2013-02-17 08:11:00,
2013-02-16 22:21:00,64.0,60.0,30.09,South,190,0.0,-999.0,86,-99.99,,,-99.99,,2013-02-17 08:21:00,
2013-02-16 22:31:00,64.0,60.0,30.09,ESE,119,0.0,-999.0,87,-99.99,,,-99.99,,2013-02-17 08:31:00,
2013-02-16 22:41:00,64.0,60.0,30.09,ESE,119,0.0,-999.0,87,-99.99,,,-99.99,,2013-02-17 08:41:00,
2013-02-16 22:52:00,64.0,60.0,30.09,ESE,114,0.0,-999.0,88,-99.99,,,-99.99,,2013-02-17 08:52:00,
2013-02-16 23:01:00,64.0,60.0,30.09,ESE,114,0.0,-999.0,88,-99.99,,,-99.99,,2013-02-17 09:01:00,
2013-02-16 23:11:00,64.0,60.0,30.09,ESE,114,0.0,-999.0,88,-99.99,,,-99.99,,2013-02-17 09:11:00,
2013-02-16 23:21:00,64.0,61.0,30.10,ESE,114,0.0,-999.0,89,-99.99,,,-99.99,,2013-02-17 09:21:00,
2013-02-16 23:31:00,63.0,59.0,30.09,ESE,114,0.0,-999.0,88,-99.99,,,-99.99,,2013-02-17 09:31:00,
2013-02-16 23:41:00,63.0,59.0,30.09,ESE,114,0.0,-999.0,88,-99.99,,,-99.99,,2013-02-17 09:41:00,
2013-02-16 23:51:00,63.0,59.0,30.09,ESE,114,0.0,-999.0,88,-99.99,,,-99.99,,2013-02-17 09:51:00,